Location: ???? ??????? ????
(31.2176°N, 31.6797°E)
Time: 11:54:19
(UTC+00:00)

CORIOLIS - Pass Details

Date: 29 October 2020
Orbit: 819 x 838 km, 98.7° (Epoch: 26 November)

Event Time Altitude Azimuth Distance (km) Brightness Sun altitude
Rises 15:41:52 0° 169° (S) 3,332 7.3 -8.1°
Reaches altitude 10° 15:44:12 10° 171° (S) 2,403 6.6 -8.6°
Maximum altitude 15:49:31 77° 257° (WSW) 842 4.4 -9.7°
Drops below altitude 10° 15:54:53 10° 344° (NNW) 2,420 6.7 -10.8°
Sets 15:57:15 0° 346° (NNW) 3,358 7.4 -11.3°
